Other Public Products
Issued by NWS Grand Forks, ND

Home | Current Version | Previous Version | Graphics & Text | Print | Product List | Glossary On
Versions: 1 2 3 4 5 6 7 8 9 10 11 12 13 14 15 16 17 18 19 20 21 22 23 24 25 26 27 28 29 30 31 32 33 34 35 36 37 38 39 40 41 42 43 44 45 46 47 48 49 50
000
FPUS83 KFGF 042110
OPUFGF
PRAIRIE TO PINES WEATHER ROUNDUP
NATIONAL WEATHER SERVICE EASTERN NORTH DAKOTA/GRAND FORKS ND
400 PM CDT TUE AUG 04 2015

 **SATELLITE DATA USED TO AUGMENT SKY COVER AT AUTOMATED STATIONS**
 *****  WEATHER ACROSS EASTERN NORTH DAKOTA  *****

CITY           SKY/WX    TMP DP  RH WIND       PRES   REMARKS
GRAND FORKS    MOSUNNY   77  55  46 N8        30.00S
GRAND FORKS AF SUNNY     76  55  48 N7        30.01S
GRAND CITY NWS   N/A     77 N/A N/A N3          N/A
BUXTON         NOT AVBL
DEVILS LAKE    SUNNY     75  48  38 SE6       30.00S
FARGO          SUNNY     81  51  35 N10       29.99S
WAHPETON ARPT  CLEAR     81  43  26 E5        30.00R
$$

 *****  WEATHER ACROSS CENTRAL AND WESTERN NORTH DAKOTA  *****

CITY           SKY/WX    TMP DP  RH WIND       PRES   REMARKS
JAMESTOWN      SUNNY     78  52  40 VRB3      29.99F
BISMARCK       SUNNY     86  53  32 S6        29.96S
MINOT          SUNNY     83  47  28 SE12G17   29.96S
MINOT AFB      SUNNY     83  49  30 SE13      29.95F
GARRISON         N/A     81  56  42 E6        29.96S
WILLISTON      MOSUNNY   89  52  28 SE13      29.91F
DICKINSON      SUNNY     85  54  34 S14G24    29.94S
HETTINGER      MOSUNNY   86  54  33 SE14      29.96F
$$

 *****  OTHER OBSERVATIONS NORTHEAST NORTH DAKOTA  *****

CITY           SKY/WX    TMP DP  RH WIND       PRES   REMARKS
WALHALLA       FAIR      73  54  49 MISG      30.03S
LANGDON        FAIR      75  50  41 E7        30.03F
CAVALIER       FAIR      73  54  49 N8        30.02F
GRAFTON        FAIR      73  54  49 VRB3      30.02F
CANDO          NOT AVBL
FORT TOTTEN      N/A     79  52  38 NE6       29.95S
ROLLA            N/A     73  50  43 SE5       30.04S
RUGBY          NOT AVBL
 ***** THE ABOVE OBSERVATIONS ARE NON NWS ARE NOT QUALITY
        CONTROLLED AND MAY MIS-REPORT RAIN FOR SNOW...
$$

 *****  OTHER OBSERVATIONS SOUTHEAST NORTH DAKOTA *****

CITY           SKY/WX    TMP DP  RH WIND       PRES   REMARKS
COOPERSTOWN    NOT AVBL
VALLEY CITY    FAIR      77  54  44 S5        30.01S
OAKES            N/A     81  54  39 NE7       29.99S
GWINNER        FAIR      81  52  36 N6        30.00S
SHEYENNE NWR     N/A     81  49  33 NE7       29.95S
BUFFALO        NOT AVBL
WYNDMERE         N/A     81  52  36 MISG        N/A
 ***** THE ABOVE OBSERVATIONS ARE NON NWS ARE NOT QUALITY
       CONTROLLED AND MAY MIS-REPORT RAIN FOR SNOW...
$$

  *****  WEATHER ACROSS NORTHERN MINNESOTA  *****

CITY           SKY/WX    TMP DP  RH WIND       PRES   REMARKS
FLAG ISLAND    SUNNY     64  48  55 N3        30.03S
WARROAD        SUNNY     64  55  72 E7        30.04F
ROSEAU         SUNNY     72  55  56 CALM      30.02F
HALLOCK        SUNNY     73  50  43 N5        30.01F
THF RVR FALLS  SUNNY     73  50  43 N9        30.02S
HALSTAD        NOT AVBL
FOSSTON        SUNNY     77  48  36 N3        30.02S
BAUDETTE       SUNNY     68  50  52 N10       30.03S
WASKISH        MOSUNNY   72  54  53 NW8       30.02S
CROOKSTON      SUNNY     75  52  43 NE6G16    30.01S
$$
  *****  WEATHER ACROSS CENTRAL AND WEST MINNESOTA  *****

CITY           SKY/WX    TMP DP  RH WIND       PRES   REMARKS
BEMIDJI        SUNNY     73  52  47 N7        30.01S
PARK RAPIDS    SUNNY     77  50  38 N9G17     30.00R
WADENA         SUNNY     79  48  34 W9G16     30.00R
DETROIT LAKES  SUNNY     77  50  38 N7        30.02S
MOORHEAD       SUNNY     77  52  41 NW6       30.00S
FERGUS FALLS   SUNNY     79  52  38 N6        29.99R
ELBOW LAKE     FAIR      78  51  38 N6        30.00S
MORRIS MN      SUNNY     81  52  36 N5        29.99S
STAPLES        SUNNY     79  45  29 NW12      29.99R
WHEATON        SUNNY     77  50  38 NW5       30.01S
$$
  *****  WEATHER ELSEWHERE ACROSS MINNESOTA  *****

CITY           SKY/WX    TMP DP  RH WIND       PRES   REMARKS
DULUTH         MOSUNNY   74  50  42 NW10G18   29.99S
INTRNTL FALLS  CLOUDY    65  49  56 NE6       30.03S
ELY            CLOUDY    63  48  59 N3        30.03R
CLOQUET        MOSUNNY   72  48  43 N9G18     29.98S
BRAINERD       SUNNY     77  51  40 N9        29.99R
HIBBING        PTSUNNY   72  49  44 N10       30.00S
ALEXANDRIA     SUNNY     79  49  34 N3        30.02R
SAINT CLOUD    MOSUNNY   80  48  32 NW6       29.98S
MINNEAPOLIS    MOSUNNY   81  51  35 NW10      29.97S
$$

  *****  WEATHER ACROSS SOUTH DAKOTA  *****

CITY           SKY/WX    TMP DP  RH WIND       PRES   REMARKS
SIOUX FALLS    CLOUDY    77  62  59 E9        30.00R
BROOKINGS      PTSUNNY   77  61  57 E9        30.02S
WATERTOWN      PTSUNNY   80  54  40 SE8       30.00S
HURON          PTSUNNY   80  62  54 SE7       29.97S
SISSETON         N/A     80  53  39 NE9       29.99R
ABERDEEN       MOSUNNY   82  56  40 SE8       29.97F
MITCHELL       PTSUNNY   81  66  60 SE12      29.98S
PIERRE         PTSUNNY   83  61  47 SE14      29.93F
MOBRIDGE       PTSUNNY   86  62  44 S14       29.93F
RAPID CITY     PTSUNNY   84  62  47 SE15      29.95F
$$

  *****  SOME WEATHER IN NEARBY STATES *****

CITY           SKY/WX    TMP DP  RH WIND       PRES   REMARKS
GLASGOW MT     MOSUNNY   93  52  24 S16G25    29.82F HX  90
GREAT FALLS MT PTSUNNY   85  41  21 MISG      29.92F
CHEYENNE WY    MOSUNNY   78  47  33 NW21G35   30.12S
SCOTTSBLUFF NE CLOUDY    74  63  68 E16       29.99S
OMAHA NE       CLOUDY    75  67  76 N9        29.93F
DES MOINES IA  CLOUDY    78  61  55 S8        29.96S
DAVENPORT IA   CLOUDY    79  62  56 NW3       29.97F
CHICAGO IL     PTSUNNY   80  53  39 NW15G21   29.96F
EAU CLAIRE WI  PTSUNNY   78  53  41 N7        29.96F
LA CROSSE WI   SUNNY     81  51  35 NW10      29.97F
$$

  *****  SOME NATIONAL WEATHER *****

CITY           SKY/WX    TMP DP  RH WIND       PRES   REMARKS
LA GUARDIA NY  MOSUNNY   91  52  26 W16G28    29.83S
RALEIGH NC     MOSUNNY   94  70  45 SE7       29.92F HX 100
ATLANTA GA     MOSUNNY   95  58  28 W6        29.99F HX  94
NEW ORLEANS LA PTSUNNY   88  75  65 S6        29.94F HX  97
OKLAHOMA CITY  PTSUNNY   87  71  58 S18G24    29.91F HX  93
ALBUQUERQUE NM MOSUNNY   92  46  20 CALM      30.15F
SALT LAKE CITY MOSUNNY   87  48  25 NE6       30.05F
LOS ANGELES CA MOSUNNY   77  63  61 W17       29.94S
BOISE ID       SUNNY     89  47  23 N8        29.94F
SEATTLE WA     MOSUNNY   74  51  44 VRB6      30.01F
$$

*** WEATHER ACROSS MANITOBA...SASKATCHEWAN AND ONTARIO ***
                ***ONTARIO***

CITY           SKY/WX    TMP DP  RH WIND       PRES   REMARKS
GERALDTON      CLOUDY    59  52  77 NW8       29.94S
THUNDER BAY    PTSUNNY   66  52  59 NW7       29.98R
SIOUX LOOKOUT  PTSUNNY   61  52  72 NW5       30.05S
TORONTO        PTSUNNY   79  54  41 W20G26    29.84S
BIG TROUT LK   CLOUDY    61  52  72 NW12G18   29.99R
PICKLE LAKE    PTSUNNY   63  50  63 VRB6      30.00S
DRYDEN         CLOUDY    61  50  67 N8        30.05S
KENORA         PTSUNNY   63  50  63 VRB2      30.05S
$$
                *** MANITOBA***

CITY           SKY/WX    TMP DP  RH WIND       PRES   REMARKS
BRANDON        MOSUNNY   75  52  43 VRB7      30.02S
DAUPHIN        SUNNY     72  54  53 NE10      30.03S
ISLAND LAKE    CLOUDY    61  55  82 N5        30.04R
PILOT MOUND      N/A     72  52  49 NE3         N/A
THE PAS        PTSUNNY   70  50  49 N6        30.03S
THOMPSON       LGT RAIN  59  54  82 N7        30.06S
WINNIPEG       PTSUNNY   70  54  56 N6        30.04S
LYNN LAKE      CLOUDY    63  52  67 E5        30.06S
CHURCHILL      CLOUDY    48  45  87 N10       30.11R
GILLAM         PTSUNNY   59  48  67 N6        30.05S
$$
                ***SASKATCHEWAN***

CITY           SKY/WX    TMP DP  RH WIND       PRES   REMARKS
ESTEVAN        PTSUNNY   82  52  34 SE13G22   29.96S
KINDERSLEY     CLOUDY    79  59  50 SW8       29.80F
LLOYDMINSTER   CLOUDY    66  57  72 E9        29.86S
PRINCE ALBERT  CLOUDY    70  59  68 E10       29.97S
REGINA         PTSUNNY   82  52  34 SE16G23   29.92F



USA.gov is the U.S. government's official web portal to all federal, state and local government web resources and services.